Location: Walton
(43.6794°N, 81.3017°W)
Time: 01:38:22
(UTC+00:00)

Cosmos 2180 Rocket - Pass Details

Date: 10 March 2026
Orbit: 952 x 1004 km, 82.9° (Epoch: 14 April)

Event Time Altitude Azimuth Distance (km) Brightness Sun altitude
Rises 10:35:08 0° 130° (SE) 3,689 8.2 -13.7°
Reaches altitude 10° 10:39:09 10° 105° (ESE) 2,735 8.0 -12.9°
Maximum altitude 10:41:55 13° 78° (ENE) 2,495 8.0 -12.4°
Drops below altitude 10° 10:44:40 10° 52° (NE) 2,727 7.8 -11.9°
Sets 10:48:38 0° 27° (NNE) 3,668 8.0 -11.2°
